{"data":{"norad_id":63142,"epoch":"2026-05-25T00:47:55.506048Z","epoch_age_seconds":86247,"freshness":"FRESH","line1":"1 63142U 25043L   26145.03328132  .00170674  00000+0  13032-2 0  9995","line2":"2 63142  42.9988 150.1245 0001167 274.0023  86.0711 15.70899918 71300","mean_motion":15.70899918,"eccentricity":0.0001167,"inclination_deg":42.9988,"raan_deg":150.1245,"arg_perigee_deg":274.0023,"mean_anomaly_deg":86.0711,"bstar":0.0013032,"rev_number":7130,"period_min":91.667201933102,"perigee_km":355.53789857766,"apogee_km":357.10972173075,"semimajor_km":6734.4608101542,"source":"CELESTRAK","updated_at":"2026-05-25T13:38:19.915875Z"}}